SWR4221 LSZH-LFMN

Flight info

Callsign SWR4221
Flight time 1h 2m
Altitude 36000
Route VEBIT T53 GERSA DCT SOSON DCT ODINA DCT ENOBA/N0456F370 Z185 ASBOP/N0383F190 Z185 BORDI
Aircraft A321/M-SDE3FGHIRWY/LB1

Departure

Time 2026-05-06 07:48
Airport Zürich Airport (LSZH)

Arrival

Time 2026-05-06 08:50
Airport Nice-Côte d'Azur Airport (LFMN)
Time Latitude Longitude Altitude Speed Heading
2026-05-06 07:24 47.45421 8.55874 1397 ft 0 kts 186°
2026-05-06 07:40 47.45445 8.55878 1397 ft 3 kts 186°
2026-05-06 07:41 47.45466 8.55880 1397 ft 4 kts 176°
2026-05-06 07:41 47.45490 8.55872 1406 ft 4 kts 142°
2026-05-06 07:41 47.45502 8.55846 1397 ft 3 kts 96°
2026-05-06 07:41 47.45504 8.55817 1397 ft 0 kts 96°
2026-05-06 07:44 47.45501 8.55861 1397 ft 11 kts 92°
2026-05-06 07:45 47.45491 8.56002 1397 ft 15 kts 97°
2026-05-06 07:45 47.45484 8.56144 1397 ft 13 kts 99°
2026-05-06 07:45 47.45502 8.56267 1397 ft 12 kts 54°
2026-05-06 07:45 47.45551 8.56360 1397 ft 11 kts 51°
2026-05-06 07:46 47.45587 8.56447 1398 ft 9 kts 76°
2026-05-06 07:46 47.45589 8.56602 1399 ft 21 kts 91°
2026-05-06 07:46 47.45576 8.56777 1400 ft 17 kts 97°
2026-05-06 07:46 47.45565 8.56943 1400 ft 16 kts 85°
2026-05-06 07:47 47.45624 8.57016 1414 ft 8 kts 355°
2026-05-06 07:47 47.45659 8.56979 1406 ft 6 kts 296°
2026-05-06 07:47 47.45661 8.56962 1406 ft 0 kts 279°
2026-05-06 07:47 47.45665 8.56929 1412 ft 19 kts 280°
2026-05-06 07:48 47.45726 8.56226 1404 ft 114 kts 276°
2026-05-06 07:48 47.45842 8.54688 1471 ft 178 kts 276°
2026-05-06 07:48 47.45926 8.52840 2307 ft 183 kts 272°
2026-05-06 07:48 47.46012 8.50978 3352 ft 181 kts 277°
2026-05-06 07:49 47.46153 8.49091 3999 ft 188 kts 276°
2026-05-06 07:49 47.45946 8.47130 4199 ft 206 kts 242°
2026-05-06 07:49 47.44860 8.45625 4438 ft 224 kts 214°
2026-05-06 07:49 47.43643 8.44159 5087 ft 227 kts 228°
2026-05-06 07:50 47.42666 8.42304 5700 ft 236 kts 234°
2026-05-06 07:50 47.41657 8.40240 6025 ft 260 kts 235°
2026-05-06 07:50 47.40590 8.38017 6601 ft 269 kts 235°
2026-05-06 07:50 47.39505 8.35740 7310 ft 274 kts 235°
2026-05-06 07:51 47.38501 8.33325 8055 ft 278 kts 242°
2026-05-06 07:51 47.37599 8.30774 8786 ft 283 kts 242°
2026-05-06 07:51 47.36681 8.28185 9491 ft 287 kts 242°
2026-05-06 07:51 47.35746 8.25558 10124 ft 295 kts 241°
2026-05-06 07:52 47.34756 8.22783 10300 ft 317 kts 241°
2026-05-06 07:52 47.33692 8.19806 10441 ft 339 kts 241°
2026-05-06 07:52 47.32562 8.16631 10587 ft 359 kts 241°
2026-05-06 07:52 47.31390 8.13330 11046 ft 367 kts 241°
2026-05-06 07:53 47.30023 8.10151 11639 ft 369 kts 226°
2026-05-06 07:53 47.27936 8.08009 12233 ft 368 kts 200°
2026-05-06 07:53 47.25434 8.07405 12822 ft 369 kts 176°
2026-05-06 07:53 47.22972 8.08456 13398 ft 373 kts 152°
2026-05-06 07:54 47.21022 8.10982 13956 ft 381 kts 128°
2026-05-06 07:54 47.19938 8.14549 14472 ft 390 kts 103°
2026-05-06 07:54 47.19932 8.18567 14952 ft 401 kts 81°
2026-05-06 07:54 47.20617 8.22514 15412 ft 405 kts 77°
2026-05-06 07:55 47.21358 8.26577 15864 ft 408 kts 77°
2026-05-06 07:55 47.22026 8.30593 16283 ft 410 kts 83°
2026-05-06 07:55 47.22164 8.34757 16686 ft 408 kts 97°
2026-05-06 07:55 47.21652 8.38838 17083 ft 406 kts 110°
2026-05-06 07:56 47.20514 8.42619 17477 ft 403 kts 124°
2026-05-06 07:56 47.18824 8.45885 17875 ft 401 kts 137°
2026-05-06 07:56 47.16699 8.48506 18263 ft 400 kts 149°
2026-05-06 07:56 47.14283 8.50503 18683 ft 398 kts 159°
2026-05-06 07:57 47.11677 8.51841 19104 ft 397 kts 168°
2026-05-06 07:57 47.08957 8.52490 19548 ft 396 kts 176°
2026-05-06 07:57 47.06204 8.52882 20011 ft 398 kts 176°
2026-05-06 07:57 47.03454 8.53273 20450 ft 398 kts 176°
2026-05-06 07:58 47.00688 8.53668 20893 ft 400 kts 176°
2026-05-06 07:58 46.97911 8.54066 21339 ft 401 kts 176°
2026-05-06 07:58 46.95129 8.54469 21742 ft 403 kts 176°
2026-05-06 07:58 46.92328 8.54878 22146 ft 405 kts 177°
2026-05-06 07:59 46.89520 8.55285 22567 ft 405 kts 177°
2026-05-06 07:59 46.86709 8.55689 22955 ft 406 kts 177°
2026-05-06 07:59 46.83894 8.56092 23318 ft 407 kts 177°
2026-05-06 07:59 46.81066 8.56497 23673 ft 410 kts 177°
2026-05-06 08:00 46.78220 8.56903 24076 ft 411 kts 176°
2026-05-06 08:00 46.75368 8.57308 24479 ft 413 kts 177°
2026-05-06 08:00 46.72504 8.57719 24811 ft 415 kts 177°
2026-05-06 08:00 46.69621 8.58132 25189 ft 415 kts 177°
2026-05-06 08:01 46.66750 8.58542 25527 ft 416 kts 177°
2026-05-06 08:01 46.63857 8.58954 25829 ft 418 kts 177°
2026-05-06 08:01 46.60961 8.59363 26105 ft 420 kts 178°
2026-05-06 08:01 46.58046 8.59778 26398 ft 421 kts 178°
2026-05-06 08:02 46.55129 8.60196 26661 ft 422 kts 178°
2026-05-06 08:02 46.52195 8.60613 26920 ft 424 kts 178°
2026-05-06 08:02 46.49259 8.61028 27129 ft 425 kts 178°
2026-05-06 08:02 46.46317 8.61444 27337 ft 425 kts 178°
2026-05-06 08:03 46.43379 8.61861 27554 ft 424 kts 178°
2026-05-06 08:03 46.40446 8.62279 27865 ft 423 kts 178°
2026-05-06 08:03 46.37589 8.62685 28101 ft 422 kts 179°
2026-05-06 08:03 46.34666 8.63099 28404 ft 421 kts 179°
2026-05-06 08:04 46.31752 8.63510 28687 ft 419 kts 179°
2026-05-06 08:04 46.28851 8.63913 28997 ft 419 kts 179°
2026-05-06 08:04 46.25944 8.64322 29191 ft 419 kts 179°
2026-05-06 08:04 46.23050 8.64732 29461 ft 417 kts 179°
2026-05-06 08:05 46.20166 8.65139 29750 ft 415 kts 180°
2026-05-06 08:05 46.17298 8.65542 30014 ft 414 kts 180°
2026-05-06 08:05 46.14430 8.65938 30286 ft 413 kts 180°
2026-05-06 08:05 46.11609 8.66293 30547 ft 411 kts 183°
2026-05-06 08:06 46.08782 8.66155 30775 ft 404 kts 191°
2026-05-06 08:06 46.06004 8.65584 31051 ft 403 kts 192°
2026-05-06 08:06 46.03224 8.65008 31345 ft 403 kts 192°
2026-05-06 08:06 46.00457 8.64443 31638 ft 401 kts 192°
2026-05-06 08:07 45.97696 8.63880 31934 ft 401 kts 192°
2026-05-06 08:07 45.94935 8.63321 32210 ft 399 kts 192°
2026-05-06 08:07 45.92185 8.62764 32459 ft 399 kts 192°
2026-05-06 08:07 45.89434 8.62204 32726 ft 399 kts 192°
2026-05-06 08:08 45.86692 8.61640 32984 ft 398 kts 193°
2026-05-06 08:08 45.83951 8.61078 33244 ft 398 kts 192°
2026-05-06 08:08 45.81211 8.60521 33503 ft 397 kts 192°
2026-05-06 08:08 45.78476 8.59971 33754 ft 397 kts 192°
2026-05-06 08:09 45.75743 8.59423 33999 ft 396 kts 192°
2026-05-06 08:09 45.73021 8.58874 34241 ft 395 kts 193°
2026-05-06 08:09 45.70298 8.58321 34444 ft 395 kts 192°
2026-05-06 08:09 45.67806 8.57811 34609 ft 396 kts 193°
2026-05-06 08:10 45.65074 8.57250 34784 ft 397 kts 192°
2026-05-06 08:10 45.62375 8.56703 34970 ft 397 kts 192°
2026-05-06 08:10 45.59638 8.56152 35154 ft 398 kts 192°
2026-05-06 08:10 45.56891 8.55603 35321 ft 399 kts 192°
2026-05-06 08:11 45.54137 8.55053 35475 ft 399 kts 192°
2026-05-06 08:11 45.51388 8.54500 35629 ft 400 kts 192°
2026-05-06 08:11 45.48625 8.53946 35793 ft 401 kts 192°
2026-05-06 08:11 45.45856 8.53391 35863 ft 402 kts 192°
2026-05-06 08:12 45.40309 8.52272 35872 ft 403 kts 192°
2026-05-06 08:12 45.34762 8.51171 35862 ft 403 kts 192°
2026-05-06 08:13 45.29214 8.50074 35862 ft 402 kts 192°
2026-05-06 08:13 45.23671 8.48964 35857 ft 401 kts 193°
2026-05-06 08:14 45.18142 8.47859 35859 ft 401 kts 192°
2026-05-06 08:14 45.12601 8.46760 35867 ft 402 kts 192°
2026-05-06 08:15 45.07063 8.45670 35872 ft 401 kts 193°
2026-05-06 08:15 45.01532 8.44573 35876 ft 401 kts 193°
2026-05-06 08:16 44.96037 8.43490 35874 ft 401 kts 193°
2026-05-06 08:16 44.90509 8.42419 35876 ft 401 kts 193°
2026-05-06 08:17 44.84986 8.41332 35863 ft 401 kts 193°
2026-05-06 08:17 44.79459 8.40249 35876 ft 401 kts 193°
2026-05-06 08:18 44.73943 8.39166 35868 ft 400 kts 193°
2026-05-06 08:18 44.68429 8.38089 35881 ft 400 kts 193°
2026-05-06 08:19 44.62922 8.37011 35882 ft 399 kts 193°
2026-05-06 08:19 44.57425 8.35941 35879 ft 398 kts 193°
2026-05-06 08:20 44.51937 8.34882 35878 ft 398 kts 193°
2026-05-06 08:20 44.46452 8.33824 35879 ft 397 kts 193°
2026-05-06 08:21 44.40984 8.32766 35865 ft 397 kts 193°
2026-05-06 08:21 44.38247 8.32232 35742 ft 395 kts 193°
2026-05-06 08:21 44.35553 8.31688 34394 ft 390 kts 197°
2026-05-06 08:22 44.32959 8.30639 32939 ft 384 kts 207°
2026-05-06 08:22 44.30660 8.28999 32392 ft 358 kts 214°
2026-05-06 08:22 44.28821 8.27159 31699 ft 354 kts 221°
2026-05-06 08:22 44.27078 8.24707 30867 ft 358 kts 230°
2026-05-06 08:23 44.25607 8.21873 29948 ft 365 kts 234°
2026-05-06 08:23 44.24158 8.18931 28996 ft 370 kts 234°
2026-05-06 08:23 44.22685 8.15948 28021 ft 376 kts 234°
2026-05-06 08:23 44.21190 8.12931 27024 ft 380 kts 234°
2026-05-06 08:24 44.19674 8.09881 26007 ft 385 kts 234°
2026-05-06 08:24 44.18140 8.06795 24977 ft 389 kts 234°
2026-05-06 08:24 44.16590 8.03683 23933 ft 393 kts 234°
2026-05-06 08:24 44.15021 8.00549 22879 ft 396 kts 234°
2026-05-06 08:25 44.13452 7.97409 22065 ft 393 kts 234°
2026-05-06 08:25 44.11899 7.94297 21306 ft 389 kts 234°
2026-05-06 08:25 44.10361 7.91224 20574 ft 385 kts 234°
2026-05-06 08:25 44.08835 7.88186 19841 ft 381 kts 233°
2026-05-06 08:26 44.07323 7.85185 19137 ft 377 kts 233°
2026-05-06 08:26 44.05824 7.82209 18443 ft 374 kts 234°
2026-05-06 08:26 44.04344 7.79262 17765 ft 371 kts 233°
2026-05-06 08:26 44.02889 7.76367 17119 ft 369 kts 233°
2026-05-06 08:27 44.01394 7.73396 16614 ft 377 kts 233°
2026-05-06 08:27 43.99884 7.70398 16418 ft 389 kts 233°
2026-05-06 08:27 43.98318 7.67293 16151 ft 393 kts 233°
2026-05-06 08:27 43.96761 7.64205 15868 ft 390 kts 233°
2026-05-06 08:28 43.95206 7.61123 15586 ft 388 kts 233°
2026-05-06 08:28 43.93657 7.58059 15314 ft 387 kts 233°
2026-05-06 08:28 43.92110 7.55005 15020 ft 386 kts 233°
2026-05-06 08:28 43.90571 7.51964 14743 ft 385 kts 233°
2026-05-06 08:29 43.89162 7.49178 14489 ft 384 kts 233°
2026-05-06 08:29 43.87592 7.46204 14218 ft 381 kts 228°
2026-05-06 08:29 43.85565 7.43869 13945 ft 379 kts 210°
2026-05-06 08:29 43.83104 7.42582 13672 ft 381 kts 192°
2026-05-06 08:30 43.80460 7.42492 13389 ft 384 kts 174°
2026-05-06 08:30 43.77905 7.43634 13086 ft 390 kts 156°
2026-05-06 08:30 43.75680 7.45819 12789 ft 395 kts 145°
2026-05-06 08:30 43.74267 7.47401 12587 ft 394 kts 145°
2026-05-06 08:31 43.72144 7.49793 12289 ft 393 kts 145°
2026-05-06 08:31 43.70070 7.52247 11986 ft 394 kts 139°
2026-05-06 08:31 43.68302 7.55149 11680 ft 397 kts 128°
2026-05-06 08:31 43.66955 7.58482 11399 ft 401 kts 117°
2026-05-06 08:32 43.66013 7.62048 11169 ft 386 kts 113°
2026-05-06 08:32 43.65156 7.65470 11043 ft 366 kts 113°
2026-05-06 08:32 43.64335 7.68702 10915 ft 348 kts 114°
2026-05-06 08:32 43.63544 7.71782 10796 ft 332 kts 114°
2026-05-06 08:33 43.62784 7.74717 10667 ft 317 kts 115°
2026-05-06 08:33 43.62063 7.77507 10454 ft 298 kts 115°
2026-05-06 08:33 43.61403 7.80077 10296 ft 273 kts 115°
2026-05-06 08:33 43.60779 7.82497 10174 ft 265 kts 116°
2026-05-06 08:34 43.60153 7.84880 10052 ft 264 kts 115°
2026-05-06 08:34 43.58963 7.89414 9777 ft 259 kts 115°
2026-05-06 08:34 43.58366 7.91720 9598 ft 252 kts 115°
2026-05-06 08:35 43.57776 7.93989 9441 ft 250 kts 115°
2026-05-06 08:35 43.57195 7.96215 9276 ft 249 kts 115°
2026-05-06 08:35 43.56606 7.98462 9110 ft 249 kts 115°
2026-05-06 08:35 43.56020 8.00701 8943 ft 248 kts 116°
2026-05-06 08:36 43.55436 8.02932 8780 ft 247 kts 115°
2026-05-06 08:36 43.54711 8.05036 8617 ft 240 kts 131°
2026-05-06 08:36 43.53573 8.06639 8460 ft 231 kts 150°
2026-05-06 08:36 43.52164 8.07611 8305 ft 224 kts 167°
2026-05-06 08:37 43.50640 8.07922 8147 ft 220 kts 184°
2026-05-06 08:37 43.49142 8.07583 7987 ft 219 kts 199°
2026-05-06 08:37 43.47789 8.06643 7825 ft 218 kts 215°
2026-05-06 08:37 43.46631 8.05281 7665 ft 218 kts 219°
2026-05-06 08:38 43.45494 8.03904 7499 ft 218 kts 219°
2026-05-06 08:38 43.44351 8.02527 7345 ft 218 kts 219°
2026-05-06 08:38 43.43210 8.01152 7185 ft 217 kts 219°
2026-05-06 08:38 43.42074 7.99787 7026 ft 217 kts 219°
2026-05-06 08:39 43.40941 7.98425 6866 ft 217 kts 219°
2026-05-06 08:39 43.39804 7.97057 6704 ft 217 kts 219°
2026-05-06 08:39 43.38752 7.95565 6546 ft 219 kts 234°
2026-05-06 08:39 43.38147 7.93636 6388 ft 224 kts 254°
2026-05-06 08:40 43.38104 7.91507 6237 ft 230 kts 276°
2026-05-06 08:40 43.38673 7.89429 6079 ft 237 kts 295°
2026-05-06 08:40 43.39510 7.87441 5917 ft 238 kts 295°
2026-05-06 08:40 43.40328 7.85471 5828 ft 237 kts 295°
2026-05-06 08:41 43.41135 7.83522 5706 ft 238 kts 295°
2026-05-06 08:41 43.42005 7.81585 5558 ft 239 kts 300°
2026-05-06 08:41 43.42961 7.79690 5414 ft 238 kts 300°
2026-05-06 08:41 43.43887 7.77838 5270 ft 238 kts 300°
2026-05-06 08:42 43.44825 7.75962 5120 ft 238 kts 300°
2026-05-06 08:42 43.45761 7.74091 4967 ft 237 kts 300°
2026-05-06 08:42 43.46695 7.72224 4823 ft 236 kts 300°
2026-05-06 08:42 43.47624 7.70364 4665 ft 235 kts 300°
2026-05-06 08:43 43.48551 7.68513 4521 ft 235 kts 300°
2026-05-06 08:43 43.49473 7.66661 4361 ft 234 kts 300°
2026-05-06 08:43 43.50392 7.64806 4227 ft 234 kts 300°
2026-05-06 08:43 43.51313 7.62958 4077 ft 234 kts 300°
2026-05-06 08:44 43.52234 7.61109 3930 ft 233 kts 300°
2026-05-06 08:44 43.53155 7.59262 3786 ft 233 kts 299°
2026-05-06 08:44 43.54069 7.57419 3628 ft 233 kts 300°
2026-05-06 08:44 43.54983 7.55576 3487 ft 232 kts 300°
2026-05-06 08:45 43.55895 7.53740 3357 ft 232 kts 300°
2026-05-06 08:45 43.56792 7.51936 3201 ft 230 kts 300°
2026-05-06 08:45 43.57694 7.50113 3054 ft 230 kts 300°
2026-05-06 08:45 43.58526 7.48438 2966 ft 230 kts 300°
2026-05-06 08:46 43.59432 7.46615 2866 ft 229 kts 300°
2026-05-06 08:46 43.60332 7.44805 2759 ft 228 kts 300°
2026-05-06 08:46 43.61223 7.43009 2655 ft 226 kts 301°
2026-05-06 08:46 43.62110 7.41216 2556 ft 225 kts 301°
2026-05-06 08:47 43.62989 7.39437 2466 ft 224 kts 301°
2026-05-06 08:47 43.63858 7.37705 2341 ft 213 kts 302°
2026-05-06 08:47 43.64692 7.36073 2200 ft 205 kts 303°
2026-05-06 08:47 43.65507 7.34478 2079 ft 202 kts 302°
2026-05-06 08:48 43.66285 7.32958 1947 ft 185 kts 303°
2026-05-06 08:48 43.66996 7.31569 1686 ft 170 kts 303°
2026-05-06 08:48 43.67645 7.30294 1429 ft 156 kts 303°
2026-05-06 08:48 43.68246 7.29112 1207 ft 145 kts 304°
2026-05-06 08:49 43.68756 7.27943 1005 ft 140 kts 290°
2026-05-06 08:49 43.68899 7.26628 807 ft 139 kts 266°
2026-05-06 08:49 43.68643 7.25360 614 ft 138 kts 243°
2026-05-06 08:49 43.68043 7.24328 421 ft 138 kts 224°
2026-05-06 08:50 43.67364 7.23395 224 ft 137 kts 225°
2026-05-06 08:50 43.66687 7.22464 52 ft 137 kts 223°
2026-05-06 08:50 43.66064 7.21632 21 ft 92 kts 224°
2026-05-06 08:50 43.65802 7.21275 24 ft 16 kts 232°
2026-05-06 08:51 43.65770 7.21220 24 ft 27 kts 230°
2026-05-06 08:51 43.65640 7.20992 24 ft 13 kts 260°
2026-05-06 08:51 43.65645 7.20966 23 ft 9 kts 283°
2026-05-06 08:51 43.65714 7.20888 22 ft 15 kts 349°
2026-05-06 08:52 43.65801 7.20939 22 ft 14 kts 40°
2026-05-06 08:52 43.65870 7.21030 24 ft 13 kts 44°
2026-05-06 08:52 43.65949 7.21078 22 ft 13 kts 352°
2026-05-06 08:52 43.66035 7.21058 22 ft 12 kts 349°
2026-05-06 08:53 43.66118 7.21036 22 ft 12 kts 349°
2026-05-06 08:53 43.66200 7.21015 22 ft 12 kts 350°
2026-05-06 08:53 43.66278 7.21012 22 ft 11 kts 22°
2026-05-06 08:53 43.66313 7.21095 22 ft 10 kts 77°
2026-05-06 08:54 43.66326 7.21185 22 ft 9 kts 79°
2026-05-06 08:54 43.66335 7.21271 22 ft 9 kts 81°
2026-05-06 08:54 43.66375 7.21304 22 ft 7 kts 355°
2026-05-06 08:54 43.66407 7.21298 22 ft 0 kts 350°
2026-05-06 08:56 43.66412 7.21280 24 ft 0 kts 11°